Location: Unspecified
(0.0000°N, 0.0000°E)
Time: 19:36:59
(UTC+00:00)

Vanguard 1 - Pass Details

Date: 16 April 2026
Orbit: 654 x 3817 km, 34.2° (Epoch: 18 May)

Event Time Altitude Azimuth Distance (km) Brightness Sun altitude
Rises 05:34:27 0° 320° (NW) 6,256 13.9 -6.3°
Reaches altitude 10° 05:40:25 10° 333° (NNW) 4,608 13.3 -4.8°
Maximum altitude 05:48:58 23° 20° (NNE) 2,713 12.7 -2.7°
Drops below altitude 10° 05:54:37 10° 71° (ENE) 2,946 14.5 -1.3°
Sets 05:57:24 0° 87° (E) 3,599 15.8 -0.6°
